Location: Helensbirgh
(56.0153°N, 4.7348°W)
Time: 23:22:05
(UTC+00:00)

N. Korean satellite - Pass Details

Date: 30 October 2019
Orbit: 456 x 506 km, 97.2° (Epoch: 12 November)

Event Time Altitude Azimuth Distance (km) Brightness Sun altitude
Rises 17:27:41 0° 176° (S) 2,491 10.3 -6.7°
Reaches altitude 10° 17:29:44 10° 182° (S) 1,627 9.4 -6.9°
Maximum altitude 17:33:10 53° 260° (W) 595 7.5 -7.4°
Drops below altitude 10° 17:36:40 10° 338° (NNW) 1,668 9.4 -7.9°
Sets 17:38:48 0° 343° (NNW) 2,562 10.3 -8.2°
